Flag for Saudi Arabia Weather past 2 weeks in Medina, Saudi Arabia

Now
100 °F

Sunny.


Feels Like: 95 °F
Forecast: 76 / 109 °F
Wind: 6 mph from Southwest

Location: Madinah

Current Time: Jul 28, 2015 at 12:12:06 PM

Latest Report: Jul 28, 2015 at 11:00 AM


Visibility: 10 mi

Pressure: 29.80 "Hg (27.88 "Hg at 606m altitude)

Humidity: 7%

Dew point: 27 °F

Location of MedinaLocation

Historic Weather in Medina — Graph

°F

Medina temperature yesterday

Maximum temperature yesterday: 111 °F (at 3:00 PM)
Minimum temperature yesterday: 86 °F (at 6:00 AM)
Average temperature yesterday: 100 °F

Past Weeks' High & Low Weather Summary

 TemperatureHumidityPressure
High111 °F (Jul 25, 2:00 PM)27% (Jul 26, 5:00 AM)29.89 "Hg (Jul 26, 5:00 AM)
Low79 °F (Jul 16, 6:00 AM)1% (Jul 18, 5:00 PM)29.65 "Hg (Jul 19, 6:00 PM)
Average97 °F9%29.79 "Hg
* Reported Jul 13 11:00 AM — Jul 28 11:00 AM, Medina, Weather by CustomWeather, © 2015

Note: Actual official high and low records may vary slightly from our data, if they occured in-between our weather recording intervals... More about our weather records

Advertising

Medina weather history for previous 24 hours

 ConditionsComfort  
Time TempWeatherWind HumidityBarometerVisibility
11:00 AM
Tue, Jul 28
100 °FSunny.6 mph7%29.80 "Hg10 mi
10:00 AM99 °FSunny.8 mph10%29.80 "Hg10 mi
9:00 AM97 °FSunny.No wind11%29.80 "Hg10 mi
8:00 AM91 °FSunny.6 mph12%29.80 "Hg10 mi
7:00 AM88 °FSunny.No wind13%29.80 "Hg10 mi
6:00 AM88 °FSunny.No wind13%29.77 "Hg10 mi
5:00 AM90 °FClear.No wind12%29.74 "Hg10 mi
4:00 AM91 °FClear.No wind12%29.74 "Hg10 mi
3:00 AM93 °FClear.No wind11%29.74 "Hg10 mi
2:00 AM95 °FClear.10 mph10%29.74 "Hg10 mi
1:00 AM95 °FClear.10 mph10%29.74 "Hg10 mi
12:00 AM97 °FClear.10 mph11%29.77 "Hg10 mi
11:00 PM
Mon, Jul 27
99 °FClear.12 mph8%29.77 "Hg10 mi
9:00 PM100 °FClear.21 mph16%29.74 "Hg10 mi
8:00 PM102 °FPassing clouds.15 mph13%29.71 "HgN/A
7:00 PM106 °FPassing clouds.18 mph5%29.71 "HgN/A
6:00 PM108 °FScattered clouds.22 mph5%29.68 "HgN/A
5:00 PM109 °FScattered clouds.16 mph4%29.68 "HgN/A
4:00 PM109 °FScattered clouds.14 mph3%29.68 "HgN/A
3:00 PM111 °FScattered clouds.6 mph3%29.71 "HgN/A
2:00 PM109 °FPassing clouds.12 mph4%29.71 "HgN/A
1:00 PM108 °FSunny.5 mph6%29.74 "Hg10 mi
12:00 PM106 °FSunny.5 mph6%29.74 "Hg10 mi
Weather by CustomWeather, © 2015

See weather overviewHow to use our weather pages